AO-07 1 07530U 74089B 24269.92326306 -.00000025 00000-0 13244-3 0 9992 2 07530 101.9871 265.5409 0011871 252.1273 121.5726 12.53679833281906 UO-11 1 14781U 84021B 24270.83042318 .00004125 00000-0 46084-3 0 9997 2 14781 97.7175 237.1565 0009922 99.0955 261.1385 14.87463575184590 AO-27 1 22825U 93061C 24270.60567513 .00000397 00000-0 16942-3 0 9990 2 22825 98.7777 324.3898 0009230 137.3987 222.7913 14.30591023617384 FO-29 1 24278U 96046B 24270.19231240 .00000054 00000-0 94606-4 0 9993 2 24278 98.5803 191.6048 0348971 286.7175 69.5944 13.53211999388341 NOAA-15 1 25338U 98030A 24270.79052722 .00000533 00000-0 23779-3 0 9992 2 25338 98.5635 295.7768 0010827 33.7912 326.3956 14.26720337371927 GO-32 1 25397U 98043D 24269.63868370 .00000363 00000-0 17781-3 0 9993 2 25397 98.9351 237.9213 0000772 170.3750 189.7443 14.24130769361710 ISS 1 25544U 98067A 24270.82919909 .00030039 00000-0 53678-3 0 9999 2 25544 51.6366 171.9406 0007236 35.0669 325.0795 15.49740538474310 NO-44 1 26931U 01043C 24269.75951412 .00000710 00000-0 29875-3 0 9998 2 26931 67.0499 71.7013 0007694 265.9537 94.0686 14.31386779200341 SO-50 1 27607U 02058C 24270.40034648 .00004482 00000-0 60906-3 0 9993 2 27607 64.5538 270.2867 0027325 56.5046 303.8664 14.79735373171505 CO-55 1 27844U 03031E 24270.73807645 .00001048 00000-0 48001-3 0 9996 2 27844 98.6804 276.3777 0009142 203.3437 156.7328 14.23487079102267 CO-57 1 27848U 03031J 24270.50216547 .00000869 00000-0 40577-3 0 9990 2 27848 98.6834 276.3305 0008740 221.7693 138.2819 14.22896045101997 RS-22 1 27939U 03042A 24270.82797729 .00004024 00000-0 66823-3 0 9993 2 27939 98.3035 68.7572 0012784 99.2921 7.7876 14.70683199123211 NOAA-18 1 28654U 05018A 24270.80156812 .00000553 00000-0 31808-3 0 9991 2 28654 98.8676 346.8967 0015098 133.2245 227.0191 14.13341034997615 CO-58 1 28895U 05043F 24270.17834124 .00005784 00000-0 10008-2 0 9994 2 28895 98.2153 46.2853 0015766 41.5615 318.6785 14.68650111 9502 CO-65 1 32785U 08021C 24270.17449286 .00013853 00000-0 11531-2 0 9995 2 32785 97.7648 234.8373 0009975 2.2044 357.9221 14.98744116890663 AAUSAT2 1 32788U 08021F 24269.84545770 .00060238 00000-0 23699-2 0 9992 2 32788 97.6017 250.9161 0006936 135.1598 225.0201 15.25398469893622 CO-66 1 32791U 08021J 24269.77410602 .00022467 00000-0 14891-2 0 9999 2 32791 97.7016 240.6481 0004328 11.0430 349.0892 15.07288525891731 RS-30 1 32953U 08025A 24270.79886904 .00000056 00000-0 33051-3 0 9999 2 32953 82.5074 26.2720 0018871 241.1394 118.7792 12.43148844741756 PRISM 1 33493U 09002B 24270.63618024 .00055292 00000-0 20283-2 0 9998 2 33493 98.1923 327.5077 0009969 249.9990 110.0174 15.27725517854498 NOAA-19 1 33591U 09005A 24270.83833421 .00000463 00000-0 27207-3 0 9996 2 33591 99.0364 327.6661 0013798 10.1554 349.9894 14.13129349805982 SRMSAT 1 37841U 11058D 24270.67647426 .00000743 00000-0 26094-3 0 9993 2 37841 19.9715 262.9074 0011931 130.1247 26.7628 14.11216842669136 RS-40 1 38735U 12041C 24270.14331421 .00000044 00000-0 24857-3 0 9995 2 38735 82.4709 106.9451 0017544 1.5850 358.5282 12.42616444551800 ZACUBE-1 1 39417U 13066B 24270.11536345 .00010696 00000-0 10576-2 0 9996 2 39417 97.7442 223.9880 0048439 183.4179 176.6716 14.91189617586619 Delfi-N3xt 1 39428U 13066N 24270.52627227 .00015248 00000-0 18279-2 0 9999 2 39428 97.8317 186.3202 0098946 118.6846 242.4357 14.80657935581251 GOMX-1 1 39430U 13066Q 24270.57207119 .00006000 00000-0 98017-3 0 9996 2 39430 97.7153 138.7982 0136351 290.6114 68.0511 14.65184381577880 LO-74 1 39440U 13066AA 24270.78325461 .00011771 00000-0 13274-2 0 9993 2 39440 97.8181 212.3890 0065689 303.0322 56.4593 14.85160887584601 AO-73 1 39444U 13066AE 24270.39936870 .00014924 00000-0 13518-2 0 9990 2 39444 97.7294 227.6881 0046492 160.9127 199.3849 14.94631878585809 DTUSAT-2 1 40030U 14033W 24270.11530700 .00016031 00000-0 12618-2 0 9991 2 40030 98.0173 225.4463 0009980 181.9606 178.1579 15.00868229558333 EO-80 1 40032U 14033Y 24270.41494640 .00016918 00000-0 13293-2 0 9992 2 40032 98.0129 225.7247 0010417 136.5601 223.6444 15.00916886558360 XW-2C 1 40906U 15049H 24270.87238335 .00071850 00000-0 11430-2 0 9994 2 40906 97.4720 290.9739 0003468 294.2229 65.8661 15.53049406500194 XW-2D 1 40907U 15049J 24270.84190818 .00172178 00000-0 14500-2 0 9991 2 40907 97.4619 295.0339 0002281 218.3563 141.7536 15.69303089500523 LILACSAT-2 1 40908U 15049K 24270.84986406 .00019531 00000-0 68477-3 0 9994 2 40908 97.5252 280.4965 0011300 4.5265 355.6075 15.29433498499016 XW-2B 1 40911U 15049N 24270.87760736 .00157001 00000-0 14293-2 0 9998 2 40911 97.4603 294.9544 0001968 231.4517 128.6568 15.67433116500389 IO-86 1 40931U 15052B 24270.29994034 .00002074 00000-0 19195-3 0 9996 2 40931 5.9998 350.0993 0012711 76.7416 283.4129 14.78150863486551 ChubuSat-2 1 41338U 16012B 24269.81542177 .00012091 00000-0 71467-3 0 9998 2 41338 31.0009 102.3183 0009915 165.3219 194.7708 15.10224717472811 ChubuSat-3 1 41339U 16012C 24270.86124818 .00011177 00000-0 67437-3 0 9990 2 41339 31.0071 94.7713 0010095 180.1975 179.8660 15.09459993472948 Horyu-4 1 41340U 16012D 24269.66038085 .00028966 00000-0 12744-2 0 9992 2 41340 31.0025 38.9587 0007176 281.6981 78.2855 15.20680341473437 Lapan A3 1 41603U 16040E 24270.82795207 .00007663 00000-0 29547-3 0 9992 2 41603 97.1434 280.0217 0013904 99.5409 260.7402 15.26490371458722 Pratham 1 41783U 16059A 24270.00493206 .00002257 00000-0 42328-3 0 9991 2 41783 97.8352 284.6249 0033680 62.1619 298.2991 14.65324099427308 CAS-2T 1 41847U 16066G 24269.74333368 .00003639 00000-0 53707-3 0 9999 2 41847 98.4513 340.2938 0351085 234.2854 122.5201 14.41836504413989 CAS-4B 1 42759U 17034B 24270.64789877 .00039230 00000-0 11671-2 0 9998 2 42759 43.0172 10.9981 0013272 312.0209 47.9515 15.33987058402956 CAS-4A 1 42761U 17034D 24270.63980839 .00037687 00000-0 11148-2 0 9994 2 42761 43.0209 9.3035 0013079 323.0507 36.9446 15.34185861402965 D-SAT 1 42794U 17036AF 24270.40933950 .00012780 00000-0 83943-3 0 9999 2 42794 97.4898 248.7401 0106926 162.4940 198.0017 15.03087642395941 TechnoSat 1 42829U 17042E 24270.76879930 .00008682 00000-0 73834-3 0 9995 2 42829 97.3879 86.2601 0013635 92.8937 267.3847 14.97987041392370 AO-91 1 43017U 17073E 24270.61404518 .00018866 00000-0 11068-2 0 9994 2 43017 97.5605 142.6087 0200078 314.3733 44.1248 14.96438631370815 TianYi 6 1 43158U 18008D 24270.87345720 .00405004 00000-0 23352-2 0 9999 2 43158 97.2463 321.3201 0002915 137.5382 222.6111 15.77561438370307 S-Net D 1 43186U 18014G 24270.28755738 .00013457 00000-0 91436-3 0 9992 2 43186 97.5769 170.4010 0011265 32.3699 327.8217 15.06435987363715 S-Net B 1 43187U 18014H 24270.68892972 .00011973 00000-0 81405-3 0 9995 2 43187 97.5773 170.7532 0011850 26.3990 333.7839 15.06434073363777 S-Net A 1 43188U 18014J 24270.68715412 .00012157 00000-0 82621-3 0 9995 2 43188 97.5778 170.8727 0011739 26.8804 333.3029 15.06446221363770 S-Net C 1 43189U 18014K 24270.29244642 .00012874 00000-0 87473-3 0 9991 2 43189 97.5792 170.4527 0013193 20.6945 339.4813 15.06427240362266 Ten-Koh 1 43677U 18084G 24270.43485674 .00008153 00000-0 70672-3 0 9996 2 43677 98.0750 67.1007 0013745 44.1544 316.0771 14.97298357321861 PO-101 1 43678U 18084H 24270.83262339 .00003933 00000-0 35521-3 0 9997 2 43678 98.0837 71.9236 0009694 57.8018 302.4141 14.96068060322114 QO-100 1 43700U 18090A 24270.67861073 .00000128 00000-0 00000+0 0 9995 2 43700 0.0165 150.1414 0001206 64.5843 61.3376 1.00274454 21616 MinXSS-2 1 43758U 18099A 24270.18122357 .00026074 00000-0 14821-2 0 9995 2 43758 97.5432 331.1668 0014218 334.3986 25.6539 15.12780616318031 AO-95 1 43770U 18099N 24270.09773034 .00019027 00000-0 12159-2 0 9995 2 43770 97.5350 325.9024 0013038 25.2239 334.9624 15.08606262317766 RANGE-B 1 43772U 18099Q 24270.72509969 .00027838 00000-0 15193-2 0 9991 2 43772 97.5135 330.4449 0004077 270.7446 89.3318 15.14300163318064 RANGE-A 1 43773U 18099R 24269.89086854 .00012254 00000-0 88540-3 0 9994 2 43773 97.4909 319.9352 0012172 356.5045 3.6094 15.04145979317566 MOVE-II 1 43780U 18099Y 24269.75813492 .00050491 00000-0 21285-2 0 9990 2 43780 97.5094 332.2011 0004235 353.9626 6.1559 15.23136374318191 SNUSat 2 1 43782U 18099AA 24270.11179412 .00015170 00000-0 10040-2 0 9993 2 43782 97.5025 324.5025 0012863 321.1799 38.8504 15.07364704317766 SnugLite 1 43784U 18099AC 24270.11035959 .00018759 00000-0 11928-2 0 9994 2 43784 97.4843 323.7973 0003192 339.8939 20.2163 15.08856801317845 ITASat 1 1 43786U 18099AE 24270.83555807 .00014503 00000-0 98132-3 0 9990 2 43786 97.5000 325.3092 0016306 10.8898 349.2679 15.06514796317864 EAGLET 1 1 43790U 18099AJ 24270.13056038 .00009773 00000-0 70068-3 0 9991 2 43790 97.5175 325.0973 0012744 353.3710 6.7345 15.04492874317446 ESEO 1 43792U 18099AL 24270.13241141 .00004713 00000-0 37843-3 0 9997 2 43792 97.5014 321.2821 0006566 331.5078 28.5787 15.00500684317335 CSIM 1 43793U 18099AM 24270.42611359 .00052417 00000-0 22381-2 0 9996 2 43793 97.5204 334.6599 0009241 318.1098 41.9430 15.22662743318146 JO-97 1 43803U 18099AX 24270.83718779 .00020675 00000-0 12522-2 0 9994 2 43803 97.5095 327.3864 0007888 318.2417 41.8210 15.10594124318027 Suomi 100 1 43804U 18099AY 24270.88291037 .00017410 00000-0 10859-2 0 9997 2 43804 97.5168 327.1876 0013292 316.7491 43.2693 15.09511512318008 ISAT 1 43879U 18111D 24270.64772917 .00026250 00000-0 14176-2 0 9997 2 43879 97.6063 176.0591 0013263 24.3855 335.8001 15.14621612312730 UWE-4 1 43880U 18111E 24270.18189152 .00025821 00000-0 14508-2 0 9993 2 43880 97.5988 175.3333 0016995 31.1984 329.0252 15.13161222312689 Sparrow 1 43881U 18111F 24270.58176316 .00027247 00000-0 14471-2 0 9999 2 43881 97.6162 178.1032 0012172 60.2070 300.0370 15.15218246312810 Prox-1 1 44339U 19036A 24270.71209410 .00020441 00000-0 32789-2 0 9993 2 44339 23.9992 290.7724 0008018 61.4333 298.6968 14.70165449280275 SONATE 1 44400U 19038Q 24270.49502521 .00043895 00000-0 10522-2 0 9997 2 44400 97.7165 269.6047 0017552 103.1986 257.1219 15.41119556289645 Taurus 1 1 44530U 19059C 24270.84441528 .00017398 00000-0 37835-2 0 9997 2 44530 98.5836 33.9210 0010698 108.5588 251.6773 14.58026274266569 Duchifat 3 1 44854U 19089C 24270.83227038 .00033936 00000-0 14569-2 0 9991 2 44854 36.9534 149.6882 0008870 257.9996 101.9758 15.21809185263669 TO-108 1 44881U 19093C 24270.78899544 .00002825 00000-0 34276-3 0 9998 2 44881 97.8206 345.6048 0013918 356.1460 3.9645 14.84283343258110 FloripaSat 1 1 44885U 19093G 24270.81016405 .00012164 00000-0 11916-2 0 9995 2 44885 97.8352 352.7148 0011300 342.3217 17.7607 14.92370837258515 RS-44 1 44909U 19096E 24270.59084175 .00000036 00000-0 96269-4 0 9990 2 44909 82.5239 37.3764 0217732 173.8679 186.5169 12.79734237221994 UPMSat 2 1 46276U 20061E 24270.63659796 .00034022 00000-0 86300-3 0 9991 2 46276 97.2860 335.9926 0002548 124.9490 235.1995 15.39609629225759 AmicalSat 1 46287U 20061R 24269.60962146 .00106258 00000-0 18986-2 0 9999 2 46287 97.3357 337.5826 0002940 199.3270 160.7871 15.49642849225048 SALSAT 1 46495U 20068K 24270.44920170 .00017627 00000-0 93000-3 0 9994 2 46495 97.8273 232.4989 0012089 337.4166 22.6532 15.15552496219637 UVSQ-SAT 1 47438U 21006AB 24270.60816311 .00289934 00000-0 19344-2 0 9994 2 47438 97.3068 333.8317 0006397 205.6139 154.4810 15.74502962204527 SOMP 2b 1 47445U 21006AJ 24270.62364863 .00165101 00000-0 16939-2 0 9990 2 47445 97.3041 331.2949 0006588 203.1490 156.9473 15.64383746204397 IDEASSat 1 47458U 21006AX 24270.60626502 .00119051 00000-0 15859-2 0 9996 2 47458 97.3166 331.3421 0006283 202.5547 157.5433 15.57711545204288 CubeSX-Sirius-HSE 1 47951U 21022V 24270.83283937 .00046758 00000-0 14689-2 0 9991 2 47951 97.4443 169.3038 0014874 127.0978 233.1626 15.32742990194107 CubeSX-HSE 1 47952U 21022W 24270.84173511 .00047047 00000-0 14669-2 0 9999 2 47952 97.4444 169.4287 0014945 126.4422 233.8200 15.32980791194111 KSU-Cubesat 1 47954U 21022Y 24270.25973435 .00074402 00000-0 19825-2 0 9993 2 47954 97.4451 170.7440 0014118 120.3516 239.9127 15.37798153193866 GRBAlpha 1 47959U 21022AD 24270.86590980 .00050122 00000-0 15593-2 0 9996 2 47959 97.4445 169.6174 0014715 126.3113 233.9490 15.33039291192949 Orbicraft-Zorkiy 1 47960U 21022AE 24270.82807551 .00060480 00000-0 16985-2 0 9993 2 47960 97.4486 171.2970 0014167 122.0368 238.2253 15.36226861193710 TUBIN 1 48900U 21059X 24270.85155965 .00035057 00000-0 10089-2 0 9997 2 48900 97.6577 58.8895 0006160 91.8030 268.3918 15.35678166180498 LEDSAT 1 49069U 21073D 24270.67390046 .00036558 00000-0 12288-2 0 9991 2 49069 97.4273 341.4355 0015953 282.6071 77.3386 15.30610720171947 CUTE 1 49263U 21088D 24270.61721845 .00040169 00000-0 15525-2 0 9992 2 49263 97.4856 336.2758 0013540 91.4513 268.8276 15.26037992165077 TeikyoSat 4 1 49396U 21102B 24269.85538568 .00005574 00000-0 39345-3 0 9996 2 49396 97.4508 311.3539 0011425 295.4831 64.5214 15.05282827157898 Z-Sat 1 49399U 21102E 24270.85161000 .00009569 00000-0 58960-3 0 9996 2 49399 97.4216 314.1525 0017838 267.4424 92.4763 15.10040794158323 KOSEN 1 1 49402U 21102H 24270.86678287 .00013937 00000-0 77334-3 0 9992 2 49402 97.4138 316.0116 0016523 247.0394 112.9095 15.13747424158512 HO-113 1 50466U 21131B 24270.86515035 .00001757 00000-0 57194-3 0 9996 2 50466 98.5244 355.4607 0004462 169.2437 190.8847 14.39991037144634 IRIS-A 1 51044U 22002BN 24270.45547687 .00053281 00000-0 13921-2 0 9998 2 51044 97.3731 336.9808 0005003 48.9195 311.2482 15.38589537149950 OreSat0 1 52017U 22026K 24270.30596998 .02097401 42935-2 22115-2 0 9992 2 52017 97.4660 291.5065 0008729 198.3228 161.7743 16.11371818141569 Planetum 1 1 52738U 22057G 24270.35618946 .00160185 00000-0 20417-2 0 9995 2 52738 97.5722 41.2415 0003851 192.5225 167.5936 15.58762010130229 Foresail-1 1 52766U 22057AL 24270.62951046 .00047692 00000-0 12288-2 0 9991 2 52766 97.5919 39.0378 0008474 135.1727 225.0203 15.39023951130014 SNUGLITE 2 1 52899U 22065F 24269.86005462 .00004022 00000-0 81977-3 0 9995 2 52899 98.1339 49.1759 0007611 191.4363 168.6666 14.61501184118960 IO-117 1 53106U 22080B 24267.95696015 -.00000003 00000-0 00000-0 0 9993 2 53106 70.1418 158.2149 0008148 84.7125 275.4465 6.42557419 51615 FO-118 1 54684U 22167C 24270.87341878 .00078044 00000-0 19140-2 0 9996 2 54684 97.6147 58.8279 0008134 155.9479 204.2148 15.40394032 99895 SSS-2B 1 56184U 23054G 24270.79864326 .00111970 00000-0 16460-2 0 9996 2 56184 97.3500 170.4038 0008318 127.0288 233.1729 15.55047495 81844 CIRBE 1 56188U 23054L 24270.55152169 .00944947 43133-3 19246-2 0 9999 2 56188 97.3312 175.0122 0010434 140.3897 219.8145 15.99454023 82155 SO-120 1 56992U 23084BU 24270.58085784 .00078498 00000-0 19938-2 0 9996 2 56992 97.5370 31.7660 0008009 16.7656 343.3852 15.39323014 71710 MRC-100 1 56993U 23084BV 24270.61339926 .00104037 00000-0 22570-2 0 9996 2 56993 97.5363 32.6688 0006871 4.5975 355.5335 15.43981837 71783 UmKA 1 (RS40S) 1 57172U 23091G 24270.82517748 .00013308 00000-0 82888-3 0 9996 2 57172 97.6013 321.9093 0017484 132.2126 228.0591 15.09572311 68812 CubeBel-2 (EU11S) 1 57175U 23091K 24270.84306838 .00017116 00000-0 10263-2 0 9995 2 57175 97.6007 322.0274 0015659 142.8221 217.4096 15.10924849 68828 VERONIKA 1 58261U 23174F 24270.84157556 .00044461 00000-0 16345-2 0 9995 2 58261 97.4507 345.0462 0010736 239.2791 120.7391 15.27704562 49195 KAFASAT 1 58317U 23174BP 24270.84529854 .00063677 00000-0 19728-2 0 9999 2 58317 97.4446 346.1803 0010215 215.1157 144.9413 15.33160204 49280 ENSO 1 58470U 23185J 24270.86419946 .00037618 00000-0 13380-2 0 9997 2 58470 97.4154 336.8049 0010058 276.2745 83.7349 15.28836424 45642 EIRSAT-1 1 58472U 23185L 24270.84602723 .00040227 00000-0 13736-2 0 9999 2 58472 97.4146 336.9525 0009598 276.0205 83.9942 15.30156653 45655 SO-121 1 58567U 23174CY 24270.79342606 .00244663 00000-0 38195-2 0 9993 2 58567 97.4391 348.0680 0011392 226.9064 133.1237 15.52886223 49409 SONATE-2 1 59112U 24043Q 24270.60259866 .00022449 00000-0 97176-3 0 9992 2 59112 97.4885 33.6419 0013213 300.0315 59.9610 15.22353148 31210 MESAT1 1 60209U 24125G 24270.84434154 .00023656 00000-0 10169-2 0 9990 2 60209 97.3110 121.2652 0024093 331.4274 28.5640 15.22387874 12860 GRBBeta 1 60237U 24128C 24270.19428531 .00011555 00000-0 98301-3 0 9994 2 60237 61.9928 250.6594 0018756 343.0881 16.9580 14.98082365 11726 Curium One 1 60242U 24128H 24270.16486808 .00018226 00000-0 15522-2 0 9993 2 60242 61.9837 250.9698 0019564 329.7120 30.2837 14.97746890 11727 ROBUSTA-3A 1 60243U 24128J 24270.30914323 .00018474 00000-0 15834-2 0 9999 2 60243 61.9901 250.6233 0017790 325.1395 34.8527 14.97516747 11749 CatSat 1 60246U 24125J 24270.35835726 .00019784 00000-0 85737-3 0 9998 2 60246 97.2919 121.9270 0049358 282.3605 77.2109 15.21291254 10902 SR-0 DemoSAT 1 60455U 24147B 24270.69836327 .00251437 00000-0 44728-2 0 9996 2 60455 37.3781 39.3877 0022442 357.8486 2.2180 15.48101453 6396 Binar 4 1 60952U 98067WS 24269.77544757 .00240753 00000-0 29404-2 0 9993 2 60952 51.6340 176.1561 0006059 55.4987 304.6577 15.59076901 4265 CosmoGirlSat 1 60953U 98067WT 24270.43698802 .00129275 00000-0 17693-2 0 9992 2 60953 51.6355 173.0755 0009156 47.6980 312.4786 15.56430817 4367 Sakura 1 60954U 98067WU 24269.72409932 .00166263 00000-0 22161-2 0 9991 2 60954 51.6352 176.5646 0008883 46.9169 313.2565 15.56998995 4257 Binar 2 1 60956U 98067WW 24269.90644841 .00215260 00000-0 27119-2 0 9993 2 60956 51.6305 175.5264 0006906 54.4002 305.7633 15.58339897 4272 Binar 3 1 60957U 98067WX 24270.72900081 .00228136 00000-0 26640-2 0 9991 2 60957 51.6317 171.2708 0005229 59.2636 300.8871 15.60305784 6391 /EX